TimeCDT,TemperatureF,Dew PointF,Humidity,Sea Level PressureIn,VisibilityMPH,Wind Direction,Wind SpeedMPH,Gust SpeedMPH,PrecipitationIn,Events,Conditions,WindDirDegrees,DateUTC
12:53 AM,69.1,66.0,90,29.96,10.0,North,3.5,-,N/A,,Clear,10,2013-06-15 05:53:00
1:53 AM,68.0,64.9,90,29.96,7.0,Calm,Calm,-,N/A,,Clear,0,2013-06-15 06:53:00
2:53 AM,68.0,64.9,90,29.96,8.0,Calm,Calm,-,N/A,,Clear,0,2013-06-15 07:53:00
3:53 AM,66.9,64.9,93,29.96,6.0,Calm,Calm,-,N/A,,Clear,0,2013-06-15 08:53:00
4:53 AM,66.9,64.0,90,29.96,4.0,Calm,Calm,-,N/A,,Clear,0,2013-06-15 09:53:00
5:53 AM,66.0,64.0,93,29.98,5.0,Calm,Calm,-,N/A,,Clear,0,2013-06-15 10:53:00
6:53 AM,69.1,66.0,90,29.99,8.0,Calm,Calm,-,N/A,,Clear,0,2013-06-15 11:53:00
7:53 AM,73.9,68.0,82,30.01,10.0,Calm,Calm,-,N/A,,Clear,0,2013-06-15 12:53:00
8:53 AM,79.0,66.9,66,30.01,10.0,ESE,6.9,-,N/A,,Clear,110,2013-06-15 13:53:00
9:53 AM,82.9,66.9,58,30.01,10.0,SE,3.5,-,N/A,,Clear,140,2013-06-15 14:53:00
10:53 AM,-9999,-9999,N/A,30.01,-9999.0,North,-9999.0,-,N/A,,Unknown,0,2013-06-15 15:53:00
11:53 AM,-9999,-9999,N/A,30.02,-9999.0,North,-9999.0,-,N/A,,Unknown,0,2013-06-15 16:53:00
12:53 PM,-9999,-9999,N/A,30.00,-9999.0,North,-9999.0,-,N/A,,Unknown,0,2013-06-15 17:53:00
1:53 PM,-9999,-9999,N/A,29.99,-9999.0,North,-9999.0,-,N/A,,Unknown,0,2013-06-15 18:53:00
2:53 PM,-9999,-9999,N/A,29.98,-9999.0,North,-9999.0,-,N/A,,Unknown,0,2013-06-15 19:53:00
3:53 PM,-9999,-9999,N/A,29.96,-9999.0,North,-9999.0,-,N/A,,Unknown,0,2013-06-15 20:53:00
4:53 PM,-9999,-9999,N/A,29.96,-9999.0,North,-9999.0,-,N/A,,Unknown,0,2013-06-15 21:53:00
5:53 PM,-9999,-9999,N/A,29.94,-9999.0,North,-9999.0,-,N/A,,Unknown,0,2013-06-15 22:53:00
6:53 PM,-9999,-9999,N/A,29.93,-9999.0,North,-9999.0,-,N/A,,Unknown,0,2013-06-15 23:53:00
7:53 PM,-9999,-9999,N/A,29.93,-9999.0,North,-9999.0,-,N/A,,Unknown,0,2013-06-16 00:53:00
8:53 PM,-9999,-9999,N/A,29.95,-9999.0,North,-9999.0,-,N/A,,Unknown,0,2013-06-16 01:53:00
9:53 PM,-9999,-9999,N/A,29.97,-9999.0,North,-9999.0,-,N/A,,Unknown,0,2013-06-16 02:53:00
10:53 PM,-9999,-9999,N/A,29.99,-9999.0,North,-9999.0,-,N/A,,Unknown,0,2013-06-16 03:53:00
11:53 PM,-9999,-9999,N/A,29.99,-9999.0,North,-9999.0,-,N/A,,Unknown,0,2013-06-16 04:53:00